Location: Willingham
(52.3167°N, 0.0667°E)
Time: 15:17:55
(UTC+00:00)

Resurs 01 Rocket - Pass Details

Date: 19 May 2025
Orbit: 627 x 637 km, 97.7° (Epoch: 17 June)

Event Time Altitude Azimuth Distance (km) Brightness Sun altitude
Rises 20:49:44 0° 219° (SW) 2,917 4.9 -7.1°
Reaches altitude 10° 20:53:14 10° 249° (WSW) 2,014 4.5 -7.5°
Maximum altitude 20:55:05 12° 274° (W) 1,858 4.7 -7.7°
Drops below altitude 10° 20:56:57 10° 300° (WNW) 2,018 5.6 -7.9°
Sets 21:00:29 0° 330° (NNW) 2,932 7.1 -8.2°
